Montgomery, AL

8:50 AM CDT on May 28, 2017 (GMT -0500)
Montgomery Regional

Weather History for KMGM - June, 2013

Change the Weather History Date:

Sunday, June 9, 2013

  Actual Average Record
Temperature  
Mean Temperature 79 °F 78 °F  
Max Temperature 86 °F 89 °F 101 °F (1995)
Min Temperature 72 °F 67 °F 55 °F (1983)
Cooling Degree Days 14 13  
Month to date cooling degree days 126 110  
Year to date cooling degree days 485 449  
Since 1 June cooling degree days 126 110  
Growing Degree Days 29 (Base 50)    
Moisture  
Dew Point 68 °F    
Average Humidity 75    
Maximum Humidity 87    
Minimum Humidity 63    
Precipitation  
Precipitation 0.11 in 0.12 in 1.70 in (2015)
Month to date precipitation 1.96 1.04  
Year to date precipitation 27.67 24.48  
Sea Level Pressure  
Sea Level Pressure 30.02 in    
Wind  
Wind Speed 7 mph (SSE)    
Max Wind Speed 18 mph    
Max Gust Speed 25 mph    
Visibility 10 miles    
Events Rain    
T = Trace of Precipitation, MM = Missing Value Source: NWS Daily Summary

Daily Weather History Graph

Daily Weather History Graph

Search for Another Location

Airport or City:

Trip Planner

Search our weather history database for the weather conditions in past years. The results will help you decide how hot, cold, wet, or windy it might be!

Date:

Astronomy

Jun. 09, 2013 Rise Set
Actual Time 5:38 AM CDT 7:51 PM CDT
Civil Twilight 5:09 AM CDT 8:19 PM CDT
Nautical Twilight 4:35 AM CDT 8:54 PM CDT
Astronomical Twilight 3:58 AM CDT 9:31 PM CDT
Moon 6:31 AM CDT (6/9) 8:42 PM CDT (6/9)
Length of Visible Light 15h 09m
Length of Day
14h 13m
New Moon, 1% of the Moon is Illuminated
Jun 9
New Moon
Jun 16
First Quarter
Jun 23
Full
Jun 29
Last Quarter
Jul 8
New

Hourly Weather History & Observations

Time (CDT) Temp. Heat Index Dew Point Humidity Pressure Visibility Wind Dir Wind Speed Gust Speed Precip Events Conditions
12:53 AM 73.9 °F - 68.0 °F 82% 30.05 in 10.0 mi SSE 6.9 mph - N/A   Scattered Clouds
1:53 AM 73.0 °F - 68.0 °F 84% 30.03 in 10.0 mi South 6.9 mph - N/A   Partly Cloudy
2:53 AM 73.0 °F - 69.1 °F 87% 30.02 in 10.0 mi Calm Calm - N/A   Clear
3:53 AM 73.0 °F - 69.1 °F 87% 30.04 in 10.0 mi Calm Calm - N/A   Clear
4:53 AM 73.9 °F - 70.0 °F 87% 30.03 in 10.0 mi SSE 6.9 mph - N/A   Clear
5:53 AM 73.9 °F - 71.1 °F 91% 30.05 in 10.0 mi SSE 4.6 mph - 0.01 in Rain Light Rain
6:53 AM 73.0 °F - 70.0 °F 90% 30.05 in 6.0 mi SE 4.6 mph - 0.06 in Rain Rain
7:53 AM 73.9 °F - 70.0 °F 87% 30.04 in 10.0 mi South 3.5 mph - 0.04 in   Clear
8:53 AM 79.0 °F - 70.0 °F 74% 30.05 in 10.0 mi SSE 8.1 mph - N/A   Mostly Cloudy
9:53 AM 82.0 °F 86.3 °F 71.1 °F 69% 30.05 in 10.0 mi SE 9.2 mph - N/A   Partly Cloudy
10:53 AM 82.9 °F 87.0 °F 70.0 °F 65% 30.06 in 10.0 mi South 9.2 mph - N/A   Clear
11:53 AM 82.9 °F 85.8 °F 68.0 °F 60% 30.03 in 10.0 mi SSE 10.4 mph 19.6 mph N/A   Partly Cloudy
12:53 PM 82.0 °F 84.9 °F 68.0 °F 62% 30.04 in 10.0 mi South 10.4 mph 18.4 mph N/A   Mostly Cloudy
1:53 PM 80.1 °F 82.9 °F 69.1 °F 69% 30.02 in 10.0 mi South 13.8 mph 21.9 mph 0.00 in   Mostly Cloudy
2:49 PM 78.8 °F - 68.0 °F 69% 30.02 in 10.0 mi South 15.0 mph 25.3 mph N/A   Mostly Cloudy
2:53 PM 78.1 °F - 68.0 °F 71% 30.01 in 10.0 mi South 11.5 mph 21.9 mph N/A   Mostly Cloudy
3:26 PM 78.8 °F - 68.0 °F 69% 29.99 in 10.0 mi South 13.8 mph 20.7 mph N/A   Scattered Clouds
3:53 PM 78.1 °F - 68.0 °F 71% 29.97 in 10.0 mi South 8.1 mph - N/A   Scattered Clouds
4:04 PM 78.8 °F - 69.8 °F 74% 29.97 in 10.0 mi South 6.9 mph 23.0 mph N/A   Mostly Cloudy
4:53 PM 78.1 °F - 68.0 °F 71% 29.98 in 10.0 mi SSW 9.2 mph 16.1 mph N/A   Mostly Cloudy
5:53 PM 78.1 °F - 66.9 °F 68% 29.99 in 10.0 mi SSW 9.2 mph - N/A   Mostly Cloudy
6:00 PM 78.8 °F - 66.2 °F 65% 29.99 in 10.0 mi SSW 6.9 mph - N/A   Partly Cloudy
6:51 PM 77.0 °F - 66.2 °F 69% 29.98 in 10.0 mi South 4.6 mph - N/A   Mostly Cloudy
6:53 PM 77.0 °F - 66.0 °F 69% 29.97 in 10.0 mi South 3.5 mph - N/A   Mostly Cloudy
7:53 PM 75.0 °F - 66.9 °F 76% 29.98 in 10.0 mi SSE 3.5 mph - N/A   Mostly Cloudy
8:53 PM 75.0 °F - 66.9 °F 76% 29.98 in 10.0 mi SSE 6.9 mph - N/A   Mostly Cloudy
9:20 PM 75.2 °F - 68.0 °F 78% 30.00 in 10.0 mi SSE 11.5 mph - N/A   Overcast
9:30 PM 75.2 °F - 68.0 °F 78% 30.00 in 10.0 mi SSE 5.8 mph - N/A   Overcast
9:46 PM 75.2 °F - 68.0 °F 78% 30.00 in 10.0 mi SE 8.1 mph - N/A   Overcast
9:53 PM 73.9 °F - 68.0 °F 82% 30.00 in 10.0 mi SE 6.9 mph - N/A   Overcast
10:26 PM 73.4 °F - 68.0 °F 83% 30.02 in 10.0 mi SE 6.9 mph - N/A   Mostly Cloudy
10:53 PM 73.9 °F - 68.0 °F 82% 30.02 in 10.0 mi SSE 6.9 mph - N/A   Overcast
11:53 PM 73.9 °F - 68.0 °F 82% 30.03 in 10.0 mi South 3.5 mph - N/A   Overcast